Beaver Island, MI

3:42 PM EDT on July 25, 2017 (GMT -0400)
Beaver Island

Weather History for KSJX - November, 2012

Change the Weather History Date:

Friday, November 16, 2012

  Actual Average Record
Temperature  
Mean Temperature 34 °F -  
Max Temperature 41 °F 42 °F 60 °F (1960)
Min Temperature 26 °F 31 °F 18 °F (1980)
Degree Days  
Heating Degree Days 32    
Moisture  
Dew Point 24 °F    
Average Humidity 66    
Maximum Humidity 83    
Minimum Humidity 46    
Precipitation  
Precipitation 0.00 in - - ()
Sea Level Pressure  
Sea Level Pressure 30.45 in    
Wind  
Wind Speed 5 mph (North)    
Max Wind Speed 9 mph    
Max Gust Speed 16 mph    
Visibility 10 miles    
Events      
Averages and records for this station are not official NWS values.
T = Trace of Precipitation, MM = Missing Value Source: NWS Daily Summary

Daily Weather History Graph

Daily Weather History Graph

Search for Another Location

Airport or City:

Trip Planner

Search our weather history database for the weather conditions in past years. The results will help you decide how hot, cold, wet, or windy it might be!

Date:

Astronomy

Nov. 16, 2012 Rise Set
Actual Time 7:43 AM EST 5:09 PM EST
Civil Twilight 7:11 AM EST 5:42 PM EST
Nautical Twilight 6:35 AM EST 6:18 PM EST
Astronomical Twilight 6:00 AM EST 6:53 PM EST
Moon 10:40 AM EST (11/16) 8:06 PM EST (11/16)
Length of Visible Light 10h 30m
Length of Day
9h 25m
Waxing Crescent, 11% of the Moon is Illuminated
Nov 16
Waxing Crescent
Nov 20
First Quarter
Nov 28
Full
Dec 6
Last Quarter
Dec 13
New

Hourly Weather History & Observations

Time (EST) Temp. Windchill Dew Point Humidity Pressure Visibility Wind Dir Wind Speed Gust Speed Precip Events Conditions
12:16 AM 41.9 °F 38.2 °F 36.1 °F 80% 30.33 in 10.0 mi NNW 5.8 mph - N/A   Clear
12:37 AM 41.9 °F 38.2 °F 35.6 °F 78% 30.33 in 10.0 mi North 5.8 mph - N/A   Clear
12:57 AM 41.7 °F 38.0 °F 34.5 °F 76% 30.34 in 10.0 mi North 5.8 mph - N/A   Clear
1:16 AM 41.4 °F 36.8 °F 33.1 °F 72% 30.34 in 10.0 mi North 6.9 mph - N/A   Clear
1:37 AM 40.5 °F 36.5 °F 30.0 °F 66% 30.34 in 10.0 mi North 5.8 mph - N/A   Clear
1:56 AM 39.7 °F 34.9 °F 30.7 °F 70% 30.34 in 10.0 mi North 6.9 mph - N/A   Clear
2:16 AM 39.6 °F 34.7 °F 30.4 °F 70% 30.35 in 10.0 mi North 6.9 mph - N/A   Clear
2:37 AM 39.2 °F 33.6 °F 29.5 °F 68% 30.36 in 10.0 mi North 8.1 mph - N/A   Clear
2:56 AM 38.8 °F 34.6 °F 27.9 °F 65% 30.38 in 10.0 mi North 5.8 mph - N/A   Clear
3:16 AM 38.3 °F 33.9 °F 28.4 °F 68% 30.38 in 10.0 mi North 5.8 mph - N/A   Clear
3:37 AM 38.3 °F 33.2 °F 28.2 °F 67% 30.39 in 10.0 mi North 6.9 mph 16.1 mph N/A   Clear
3:56 AM 37.4 °F 31.4 °F 28.0 °F 69% 30.39 in 10.0 mi North 8.1 mph - N/A   Clear
4:16 AM 36.7 °F 32.0 °F 27.0 °F 68% 30.39 in 10.0 mi NNW 5.8 mph - N/A   Clear
4:36 AM 36.5 °F 31.8 °F 26.6 °F 67% 30.40 in 10.0 mi NNW 5.8 mph - N/A   Clear
4:56 AM 36.0 °F 31.1 °F 25.2 °F 65% 30.40 in 10.0 mi North 5.8 mph - N/A   Clear
5:17 AM 35.4 °F 30.5 °F 24.4 °F 64% 30.41 in 10.0 mi North 5.8 mph - N/A   Clear
5:36 AM 35.6 °F 30.7 °F 25.7 °F 67% 30.42 in 10.0 mi North 5.8 mph - N/A   Clear
5:56 AM 35.2 °F 29.5 °F 25.2 °F 67% 30.42 in 10.0 mi North 6.9 mph - N/A   Clear
6:17 AM 34.7 °F 30.6 °F 25.3 °F 69% 30.42 in 10.0 mi North 4.6 mph - N/A   Clear
6:36 AM 34.3 °F 31.4 °F 25.0 °F 69% 30.42 in 10.0 mi North 3.5 mph - N/A   Clear
6:57 AM 34.0 °F 31.0 °F 25.2 °F 70% 30.43 in 10.0 mi North 3.5 mph - N/A   Clear
7:16 AM 33.6 °F 29.4 °F 24.8 °F 70% 30.44 in 10.0 mi North 4.6 mph - N/A   Clear
7:36 AM 33.1 °F 28.7 °F 24.6 °F 71% 30.45 in 10.0 mi North 4.6 mph - N/A   Clear
7:57 AM 32.9 °F 27.5 °F 24.4 °F 71% 30.45 in 10.0 mi North 5.8 mph - N/A   Clear
8:16 AM 33.4 °F 27.3 °F 24.4 °F 70% 30.46 in 10.0 mi North 6.9 mph - N/A   Clear
8:36 AM 34.2 °F 30.0 °F 24.3 °F 67% 30.46 in 10.0 mi North 4.6 mph - N/A   Clear
8:57 AM 35.4 °F 29.7 °F 23.4 °F 62% 30.47 in 10.0 mi North 6.9 mph - N/A   Clear
9:16 AM 36.5 °F 31.0 °F 23.9 °F 60% 30.48 in 10.0 mi North 6.9 mph - N/A   Clear
9:36 AM 36.9 °F 31.4 °F 23.9 °F 59% 30.48 in 10.0 mi NNW 6.9 mph - N/A   Clear
9:57 AM 37.4 °F 32.8 °F 22.8 °F 56% 30.48 in 10.0 mi North 5.8 mph - N/A   Clear
10:16 AM 38.1 °F 33.7 °F 22.8 °F 54% 30.49 in 10.0 mi North 5.8 mph - N/A   Clear
10:36 AM 38.5 °F 35.0 °F 23.0 °F 54% 30.50 in 10.0 mi North 4.6 mph - N/A   Clear
10:57 AM 38.7 °F 32.4 °F 23.4 °F 54% 30.50 in 10.0 mi NNE 9.2 mph - N/A   Clear
11:16 AM 38.7 °F 32.9 °F 23.9 °F 55% 30.50 in 10.0 mi NNE 8.1 mph - N/A   Clear
11:37 AM 39.2 °F 34.2 °F 25.2 °F 57% 30.50 in 10.0 mi North 6.9 mph - N/A   Clear
11:56 AM 39.2 °F 33.0 °F 24.8 °F 56% 30.50 in 10.0 mi North 9.2 mph - N/A   Clear
12:16 PM 39.2 °F 35.0 °F 25.0 °F 57% 30.50 in 10.0 mi North 5.8 mph - N/A   Clear
12:37 PM 39.6 °F 35.4 °F 24.8 °F 56% 30.50 in 10.0 mi North 5.8 mph - N/A   Clear
12:56 PM 39.9 °F 36.7 °F 24.4 °F 54% 30.50 in 10.0 mi North 4.6 mph - N/A   Clear
1:16 PM 40.1 °F 35.3 °F 24.3 °F 53% 30.50 in 10.0 mi North 6.9 mph - N/A   Clear
1:36 PM 39.9 °F 35.1 °F 24.3 °F 54% 30.50 in 10.0 mi NW 6.9 mph - N/A   Clear
1:56 PM 40.1 °F 35.3 °F 24.1 °F 53% 30.50 in 10.0 mi NNE 6.9 mph - N/A   Clear
2:17 PM 39.7 °F 35.6 °F 22.6 °F 50% 30.50 in 10.0 mi North 5.8 mph - N/A   Clear
2:36 PM 40.1 °F 36.9 °F 23.0 °F 51% 30.50 in 10.0 mi NNE 4.6 mph - N/A   Clear
2:56 PM 39.7 °F - 22.5 °F 50% 30.49 in 10.0 mi Calm Calm - N/A   Clear
3:17 PM 39.4 °F 35.2 °F 21.9 °F 50% 30.49 in 10.0 mi NNE 5.8 mph - N/A   Clear
3:36 PM 39.7 °F 35.6 °F 21.4 °F 48% 30.49 in 10.0 mi NNE 5.8 mph - N/A   Clear
3:56 PM 39.6 °F - 20.3 °F 46% 30.49 in 10.0 mi Calm Calm - N/A   Clear
4:16 PM 39.2 °F - 20.1 °F 46% 30.50 in 10.0 mi Calm Calm - N/A   Clear
4:36 PM 38.7 °F 36.3 °F 20.3 °F 48% 30.50 in 10.0 mi North 3.5 mph - N/A   Clear
4:57 PM 37.6 °F - 20.1 °F 49% 30.50 in 10.0 mi Calm Calm - N/A   Clear
5:16 PM 32.5 °F - 20.7 °F 62% 30.50 in 10.0 mi Calm Calm - N/A   Clear
5:37 PM 30.9 °F - 19.9 °F 64% 30.50 in 10.0 mi Calm Calm - N/A   Clear
5:57 PM 30.7 °F - 21.9 °F 70% 30.50 in 10.0 mi Calm Calm - N/A   Clear
6:16 PM 28.9 °F - 21.2 °F 73% 30.50 in 10.0 mi Calm Calm - N/A   Clear
6:37 PM 28.4 °F - 21.6 °F 76% 30.49 in 10.0 mi Calm Calm - N/A   Clear
7:16 PM 29.1 °F - 22.3 °F 76% 30.49 in 10.0 mi Calm Calm - N/A   Clear
7:37 PM 28.8 °F - 21.2 °F 73% 30.49 in 10.0 mi Calm Calm - N/A   Clear
7:56 PM 28.0 °F - 21.2 °F 76% 30.48 in 10.0 mi Calm Calm - N/A   Clear
8:16 PM 28.0 °F - 21.2 °F 76% 30.48 in 10.0 mi Calm Calm - N/A   Clear
8:37 PM 27.1 °F - 21.0 °F 78% 30.48 in 10.0 mi Calm Calm - N/A   Clear
8:56 PM 27.1 °F - 21.4 °F 79% 30.48 in 10.0 mi Calm Calm - N/A   Clear
9:17 PM 27.7 °F - 20.3 °F 74% 30.48 in 10.0 mi Calm Calm - N/A   Clear
9:36 PM 27.3 °F - 21.0 °F 77% 30.48 in 10.0 mi Calm Calm - N/A   Clear
9:56 PM 27.1 °F - 21.2 °F 78% 30.48 in 10.0 mi Calm Calm - N/A   Clear
10:17 PM 26.8 °F - 21.2 °F 79% 30.47 in 10.0 mi Calm Calm - N/A   Clear
10:36 PM 26.2 °F - 20.8 °F 80% 30.47 in 10.0 mi Calm Calm - N/A   Clear
10:57 PM 26.4 °F - 21.0 °F 80% 30.48 in 10.0 mi Calm Calm - N/A   Clear
11:16 PM 26.2 °F - 21.6 °F 82% 30.48 in 10.0 mi Calm Calm - N/A   Clear
11:36 PM 26.6 °F - 22.1 °F 83% 30.48 in 10.0 mi Calm Calm - N/A   Clear
11:57 PM 26.1 °F 21.9 °F 21.4 °F 82% 30.48 in 10.0 mi SE 3.5 mph - N/A   Clear